Overview Statistics Trail Chart Weather Telemetry Raw packets
 

This is the latest recevied weather packets stored in our database for station/object KN6WGU. If no packets are shown the sender has not sent any weather packets the latest 10 day(s).

<< 68 69 70 71 72 73 74 >>
Time Temp. Humidity Pressure Rain* Wind** Luminosity Snow
1788130407 24.44° C 78% 1011.8 hPa 0 mm - 20 W/m² -
1788130107 25° C 77% 1011.7 hPa 0 mm - 33 W/m² -
1788129801 25° C 77% 1011.5 hPa 0 mm - 46 W/m² -
1788129498 24.44° C 78% 1011.2 hPa 0 mm - 59 W/m² -
1788129194 24.44° C 80% 1011.3 hPa 0 mm - 98 W/m² -
1788128893 23.89° C 79% 1011.2 hPa 0 mm - 58 W/m² -
1788128589 24.44° C 79% 1011.1 hPa 0 mm - 28 W/m² -
1788128284 24.44° C 78% 1010.9 hPa 0 mm - 19 W/m² -
1788127981 24.44° C 78% 1010.9 hPa 0 mm - 18 W/m² -
1788127676 25° C 77% 1010.5 hPa 0 mm - 19 W/m² -
1788127375 25° C 76% 1010.6 hPa 0 mm - 34 W/m² -
1788127073 25° C 76% 1010.5 hPa 0 mm - 75 W/m² -
1788126768 25° C 76% 1010.4 hPa 0 mm - 60 W/m² -
1788126463 25° C 76% 1010.7 hPa 0 mm - 71 W/m² -
1788126163 25° C 77% 1010.7 hPa 0 mm - 79 W/m² -
1788125862 25° C 77% 1010.5 hPa 0 mm - 87 W/m² -
1788125557 25° C 76% 1010.6 hPa 0 mm - 78 W/m² -
1788125253 25° C 77% 1010.7 hPa 0 mm - 94 W/m² -
1788124949 25° C 77% 1010.5 hPa 0 mm - 110 W/m² -
1788124648 25.56° C 75% 1010.4 hPa 0 mm - 139 W/m² -
1788124347 25.56° C 76% 1010.5 hPa 0 mm - 151 W/m² -
1788124048 25.56° C 77% 1010.5 hPa 0 mm - 121 W/m² -
1788123743 25° C 78% 1010.2 hPa 0 mm - 185 W/m² -
1788123440 25° C 79% 1010.1 hPa 0 mm - 164 W/m² -
1788123135 24.44° C 79% 1010.3 hPa 0 mm - 198 W/m² -

* Rain latest hour (hover to see other rain measurements)
** Current wind speed in m/s (hover to see current wind gust speed)